• In Belarus
  • List of Countries
  • For 7 days
  • Water Temperature
  • Satellite Maps
  • Weather Map
  • Weather Widgets
  • user-avatar
    Login

    Hourly Weather Eisenstadt

    Today, 18 February, Monday

    Time Temperature Precipitation Wind Pressure Humidity
    00:00 +5°C° 0 mm 1 mps 728 mmHg 67%
    01:00 +5°C° 0 mm 1 mps 728 mmHg 66%
    02:00 +5°C° 0 mm 1 mps 728 mmHg 66%
    03:00 +4°C° 0 mm 1 mps 727 mmHg 65%
    04:00 +4°C° 0 mm 1 mps 727 mmHg 65%
    05:00 +4°C° 0 mm 1 mps 727 mmHg 65%
    06:00 +4°C° 0 mm 1 mps 727 mmHg 65%
    07:00 +1°C° 0 mm 0 mps 727 mmHg 65%
    08:00 +3°C° 0 mm 0 mps 727 mmHg 61%
    09:00 +6°C° 0 mm 1 mps 727 mmHg 57%
    10:00 +8°C° 0 mm 1 mps 727 mmHg 53%
    11:00 +9°C° 0 mm 1 mps 727 mmHg 51%
    12:00 +10°C° 0 mm 1 mps 727 mmHg 49%
    13:00 +12°C° 0 mm 2 mps 727 mmHg 47%
    14:00 +10°C° 0 mm 2 mps 726 mmHg 50%
    15:00 +10°C° 0 mm 2 mps 726 mmHg 53%
    16:00 +10°C° 0 mm 2 mps 725 mmHg 55%
    17:00 +8°C° 0 mm 2 mps 725 mmHg 61%
    18:00 +7°C° 0 mm 2 mps 725 mmHg 66%
    19:00 +5°C° 0 mm 2 mps 725 mmHg 71%
    20:00 +5°C° 0 mm 2 mps 725 mmHg 72%
    21:00 +4°C° 0 mm 2 mps 725 mmHg 73%
    22:00 +4°C° 0 mm 2 mps 725 mmHg 74%
    23:00 +3°C° 0 mm 2 mps 725 mmHg 74%

    Tomorrow, 19 February, Tuesday

    Time Temperature Precipitation Wind Pressure Humidity
    00:00 +3°C° 0 mm 2 mps 724 mmHg 75%
    01:00 +4°C° 0 mm 1 mps 724 mmHg 76%
    02:00 +4°C° 0 mm 1 mps 724 mmHg 76%
    03:00 +3°C° 0 mm 1 mps 724 mmHg 76%
    04:00 +3°C° 0 mm 1 mps 724 mmHg 76%
    05:00 +3°C° 0 mm 1 mps 724 mmHg 75%
    06:00 +3°C° 0 mm 1 mps 724 mmHg 75%
    07:00 +2°C° 0 mm 1 mps 724 mmHg 74%
    08:00 +3°C° 0 mm 0 mps 724 mmHg 69%
    09:00 +5°C° 0 mm 0 mps 724 mmHg 63%
    10:00 +7°C° 0 mm 0 mps 724 mmHg 57%
    11:00 +8°C° 0 mm 0 mps 724 mmHg 54%
    12:00 +9°C° 0 mm 0 mps 724 mmHg 52%
    13:00 +12°C° 0 mm 1 mps 724 mmHg 49%
    14:00 +11°C° 0 mm 1 mps 724 mmHg 50%
    15:00 +11°C° 0 mm 1 mps 724 mmHg 52%
    16:00 +11°C° 0 mm 1 mps 723 mmHg 53%
    17:00 +10°C° 0 mm 1 mps 724 mmHg 58%
    18:00 +8°C° 0 mm 1 mps 724 mmHg 64%
    19:00 +7°C° 0 mm 1 mps 724 mmHg 69%
    20:00 +6°C° 0 mm 1 mps 724 mmHg 69%
    21:00 +6°C° 0 mm 1 mps 724 mmHg 69%
    22:00 +6°C° 0 mm 1 mps 724 mmHg 69%
    23:00 +6°C° 0 mm 1 mps 725 mmHg 69%

    Day after tomorrow, 20 February, Wednesday

    Time Temperature Precipitation Wind Pressure Humidity
    00:00 +5°C° 0 mm 1 mps 725 mmHg 69%
    01:00 +5°C° 0 mm 1 mps 725 mmHg 69%
    02:00 +5°C° 0 mm 1 mps 725 mmHg 72%
    03:00 +5°C° 0 mm 1 mps 725 mmHg 75%
    04:00 +5°C° 0 mm 1 mps 725 mmHg 78%
    05:00 +5°C° 0 mm 1 mps 726 mmHg 80%
    06:00 +5°C° 0 mm 1 mps 726 mmHg 83%
    07:00 +4°C° 0 mm 1 mps 726 mmHg 85%
    08:00 +6°C° 0 mm 1 mps 727 mmHg 78%
    09:00 +7°C° 0 mm 1 mps 727 mmHg 71%
    10:00 +8°C° 0 mm 2 mps 728 mmHg 64%
    11:00 +9°C° 0 mm 2 mps 728 mmHg 61%
    12:00 +10°C° 0 mm 2 mps 728 mmHg 57%
    13:00 +12°C° 0 mm 2 mps 728 mmHg 54%
    14:00 +11°C° 0 mm 1 mps 728 mmHg 55%
    15:00 +11°C° 0 mm 1 mps 727 mmHg 57%
    16:00 +11°C° 0 mm 1 mps 727 mmHg 58%
    17:00 +9°C° 0 mm 1 mps 728 mmHg 64%
    18:00 +8°C° 0 mm 1 mps 728 mmHg 70%
    19:00 +6°C° 0 mm 0 mps 728 mmHg 76%
    20:00 +6°C° 0 mm 1 mps 728 mmHg 77%
    21:00 +6°C° 0 mm 1 mps 729 mmHg 78%
    22:00 +6°C° 0 mm 1 mps 729 mmHg 80%
    23:00 +5°C° 0 mm 1 mps 729 mmHg 80%

    21 February, Thursday

    Time Temperature Precipitation Wind Pressure Humidity
    00:00 +5°C° 0 mm 1 mps 729 mmHg 81%
    01:00 +5°C° 0 mm 1 mps 729 mmHg 81%
    02:00 +5°C° 0 mm 1 mps 729 mmHg 81%
    03:00 +5°C° 0 mm 1 mps 729 mmHg 82%
    04:00 +4°C° 0 mm 1 mps 729 mmHg 82%
    05:00 +4°C° 0 mm 1 mps 729 mmHg 82%
    06:00 +4°C° 0 mm 1 mps 729 mmHg 82%
    07:00 +4°C° 0 mm 1 mps 729 mmHg 82%
    08:00 +6°C° 0 mm 1 mps 730 mmHg 77%
    09:00 +7°C° 0 mm 1 mps 730 mmHg 71%
    10:00 +9°C° 0 mm 1 mps 730 mmHg 65%
    11:00 +9°C° 0.1 mm 1 mps 730 mmHg 64%
    12:00 +10°C° 0.1 mm 1 mps 730 mmHg 63%
    13:00 +10°C° 0.1 mm 1 mps 730 mmHg 61%
    14:00 +11°C° 0 mm 1 mps 730 mmHg 60%
    15:00 +11°C° 0 mm 1 mps 729 mmHg 58%
    16:00 +12°C° 0 mm 1 mps 729 mmHg 57%
    17:00 +10°C° 0 mm 1 mps 729 mmHg 59%
    18:00 +9°C° 0 mm 1 mps 730 mmHg 62%
    19:00 +7°C° 0 mm 2 mps 730 mmHg 65%
    20:00 +7°C° 0.1 mm 2 mps 730 mmHg 65%
    21:00 +7°C° 0.1 mm 3 mps 730 mmHg 66%
    22:00 +7°C° 0.1 mm 3 mps 731 mmHg 67%
    23:00 +7°C° 0.1 mm 3 mps 731 mmHg 68%

    22 February, Friday

    Time Temperature Precipitation Wind Pressure Humidity
    00:00 +7°C° 0.1 mm 3 mps 731 mmHg 70%
    01:00 +6°C° 0.1 mm 4 mps 731 mmHg 71%
    02:00 +6°C° 0 mm 4 mps 731 mmHg 73%
    03:00 +7°C° 0 mm 3 mps 731 mmHg 74%
    04:00 +7°C° 0 mm 3 mps 731 mmHg 75%
    05:00 +7°C° 0 mm 3 mps 731 mmHg 77%
    06:00 +5°C° 0 mm 3 mps 731 mmHg 79%
    07:00 +5°C° 0 mm 3 mps 732 mmHg 81%
    08:00 +6°C° 0 mm 4 mps 732 mmHg 79%
    09:00 +7°C° 0 mm 5 mps 732 mmHg 78%
    10:00 +7°C° 0 mm 5 mps 733 mmHg 76%
    11:00 +8°C° 0 mm 6 mps 733 mmHg 74%
    12:00 +8°C° 0 mm 7 mps 733 mmHg 71%
    13:00 +9°C° 0 mm 7 mps 733 mmHg 68%
    14:00 +9°C° 0.1 mm 7 mps 733 mmHg 70%
    15:00 +8°C° 0.1 mm 7 mps 734 mmHg 71%
    16:00 +8°C° 0.1 mm 6 mps 734 mmHg 73%
    17:00 +7°C° 0 mm 6 mps 734 mmHg 74%
    18:00 +6°C° 0 mm 5 mps 735 mmHg 76%
    19:00 +6°C° 0 mm 5 mps 736 mmHg 78%
    20:00 +5°C° 0 mm 5 mps 736 mmHg 78%
    21:00 +4°C° 0 mm 4 mps 737 mmHg 78%
    22:00 +3°C° 0 mm 4 mps 737 mmHg 78%
    23:00 +3°C° 0 mm 4 mps 738 mmHg 78%

    23 February, Saturday

    Time Temperature Precipitation Wind Pressure Humidity
    00:00 +2°C° 0 mm 3 mps 738 mmHg 78%
    01:00 +2°C° 0 mm 3 mps 739 mmHg 78%
    02:00 +2°C° 0 mm 2 mps 739 mmHg 81%
    03:00 +2°C° 0 mm 2 mps 739 mmHg 84%
    04:00 +2°C° 0 mm 1 mps 739 mmHg 87%
    05:00 +2°C° 0 mm 1 mps 739 mmHg 86%
    06:00 0°C° 0 mm 0 mps 739 mmHg 86%
    07:00 0°C° 0 mm 0 mps 739 mmHg 86%
    08:00 +1°C° 0 mm 0 mps 739 mmHg 78%
    09:00 +4°C° 0 mm 1 mps 739 mmHg 71%
    10:00 +6°C° 0 mm 1 mps 739 mmHg 63%
    11:00 +7°C° 0 mm 1 mps 739 mmHg 61%
    12:00 +8°C° 0 mm 1 mps 738 mmHg 58%
    13:00 +10°C° 0 mm 1 mps 738 mmHg 55%
    14:00 +10°C° 0 mm 1 mps 738 mmHg 56%
    15:00 +9°C° 0 mm 1 mps 737 mmHg 57%
    16:00 +9°C° 0 mm 1 mps 737 mmHg 58%
    17:00 +8°C° 0 mm 1 mps 737 mmHg 63%
    18:00 +7°C° 0 mm 1 mps 736 mmHg 68%
    19:00 +6°C° 0 mm 1 mps 736 mmHg 73%
    20:00 +6°C° 0 mm 1 mps 736 mmHg 74%
    21:00 +5°C° 0 mm 2 mps 736 mmHg 75%
    22:00 +5°C° 0 mm 2 mps 736 mmHg 77%
    23:00 +5°C° 0 mm 2 mps 735 mmHg 75%
    Show more